Tracking 27097 objects as of 30-Mar-2023
HD Live streaming from Space Station
objects crossing your sky now

BS-3A (YURI 3A)

Track BS-3A (YURI 3A) now!
BS-3A (YURI 3A) is classified as:


NORAD ID: 20771
Int'l Code: 1990-077A
Perigee: 36,173.7 km
Apogee: 36,242.4 km
Inclination: 15.5 °
Period: 1,457.3 minutes
Semi major axis: 42579 km
RCS: 1.6597 m2 (large)
Launch date: August 28, 1990
Source: Japan (JPN)
Launch site: TANEGASHIMA SPACE CENTER (TNSTA)
Your satellite tracking list
Your tracking list is empty




NASA's NSSDC Master Catalog

Two Line Element Set (TLE):
1 20771U 90077A   23085.88313240 -.00000042  00000-0  00000-0 0  9994
2 20771  15.5319   6.6125 0008066 247.7346 283.1917  0.98811694123931
Source of the keplerian elements: AFSPC